Simultaneous Nadir Overpasses (SNOs) Predictions

Prediction of SNOs between NOAA-20 and LANDSAT-8 Satellite Orbit:

Table of predicted SNOs for the next 14.0 days since TLE Epoch: 3/28/2020
Index Date (NOAA-20) Time (NOAA-20) Lat,Lon (NOAA-20) SZA (NOAA-20 ) Date (LANDSAT-8) Time (LANDSAT-8) Lat,Lon (LANDSAT-8) SZA (LANDSAT-8 ) Distance(km) Time Diff (sec)
1 03/28/2020 14:16:05 70.25, -37.78 66.91 03/28/2020 14:16:53 70.23, -37.73 66.88 2.74 48
2 03/28/2020 15:06:46 -70.12, 129.75 113.25 03/28/2020 15:06:23 -70.12, 129.75 113.25 0.74 23
3 03/31/2020 06:32:59 70.19, 78.08 65.80 03/31/2020 06:33:21 70.20, 78.10 65.80 1.35 22
4 03/31/2020 07:23:41 -70.10,-114.47 114.31 03/31/2020 07:22:51 -70.09,-114.42 114.32 2.58 50
5 04/02/2020 21:59:09 -70.30, 26.36 115.11 04/02/2020 22:00:21 -70.27, 26.44 115.15 4.35 72
6 04/02/2020 22:49:52 70.13,-166.06 64.70 04/02/2020 22:49:48 70.16,-166.07 64.73 3.28 4
7 04/02/2020 23:40:32 -69.94, 1.55 115.52 04/02/2020 23:39:19 -70.00, 1.34 115.44 10.65 73
8 04/05/2020 14:16:03 -70.24, 142.22 116.20 04/05/2020 14:16:49 -70.23, 142.27 116.22 1.97 46
9 04/05/2020 15:06:47 70.13, -50.29 63.67 04/05/2020 15:06:16 70.12, -50.25 63.66 1.76 31
10 04/08/2020 05:42:29 71.01, 89.43 63.61 04/08/2020 05:43:36 70.89, 91.49 63.43 76.27 67
11 04/08/2020 06:32:57 -70.18,-101.92 117.27 04/08/2020 06:33:17 -70.19,-101.91 117.27 0.72 20
12 04/08/2020 07:23:41 70.07, 65.56 62.60 04/08/2020 07:22:44 70.07, 65.56 62.61 0.15 57
13 04/10/2020 21:59:09 70.22,-153.53 61.79 04/10/2020 22:00:15 70.24,-153.60 61.80 2.85 66
14 04/10/2020 22:49:51 -70.13, 13.93 118.32 04/10/2020 22:49:45 -70.14, 13.90 118.31 1.81 6
15 04/10/2020 23:40:28 69.65,-178.04 61.17 04/10/2020 23:39:17 69.74,-179.01 61.30 39.05 71




NCC Satellite Simultaneous Nadir Overpasses (SNOs) Prediction Service
